Location: Augirein
(42.9320°N, 0.9181°E)
Time: 20:04:43
(UTC+00:00)

Cosmos 1633 - Pass Details

Date: 20 June 2021
Orbit: 461 x 476 km, 82.5° (Epoch: 23 July)

Event Time Altitude Azimuth Distance (km) Brightness Sun altitude
Exits shadow 02:26:53 21° 262° (W) 1,081 3.9 -15.3°
Maximum altitude 02:27:45 24° 285° (WNW) 1,015 4.0 -15.2°
Drops below altitude 10° 02:30:40 10° 341° (NNW) 1,622 5.7 -14.9°
Sets 02:33:03 0° 356° (N) 2,505 7.0 -14.6°
